User: anonymous   Login
Location: Harbor Island
(32.3990°N, 80.4435°W)
Time: 00:16:02
(UTC-04:00)
Language:

Cosmos 1455 - Orbit

View from above orbital plane
View from above orbital plane
View from above satellite
View from above satellite

Ground track
Ground track

The orbit data is extracted from the following two-line orbital elements,

1 14032U 83037A   15142.75827778  .00002807  00000-0  15050-3 0  9996
2 14032 082.5164 112.9386 0019748 028.7450 038.8431 15.14422916746787
Epoch (UTC): 22 May 2015 18:11:55
Eccentricity: 0.0019748
inclination: 82.5164°
perigee height: 509 km
apogee height: 536 km
right ascension of ascending node: 112.9386°
argument of perigee: 28.7450°
revolutions per day: 15.14422916
mean anomaly at epoch: 38.8431°
orbit number at epoch: 74678

The dashed part of the orbit path shows where the satellite is in the earth's shadow,  

DLR